This demonstration page uses our WeatherBlox Daily Observations layout. Learn more.

38.88101, -77.10428

Hourly Observations for March 28, 2017

Temp ( °F °C ) Dew Point ( °F °C ) Humidity (%) Winds ( mph kmh ) Pressure ( in mb ) Visibility ( mi km ) Precip ( " mm )
12:52 am 00:52 Cloudy 60 15.6 56 13.3 86 86 Calm 29.88 1012 10 16.09344 0 0
1:52 am 01:52 Cloudy 57 13.9 55 12.8 93 93 Calm 29.88 1012 10 16.09344 0 0
2:52 am 02:52 Cloudy 61 16.1 57 13.9 87 87 Calm 29.85 1011 10 16.09344 0 0
3:52 am 03:52 Cloudy 62 16.7 57 13.9 84 84 S 6 9 29.83 1010 10 16.09344 0 0
4:52 am 04:52 Cloudy with Light Rain 61 16.1 57 13.9 87 87 SSW 3 6 29.83 1010 10 16.09344 0.001 0.001
5:52 am 05:52 Cloudy 61 16.1 58 14.4 90 90 S 7 11 29.83 1010 10 16.09344 0.001 0.001
6:52 am 06:52 Mostly Cloudy 61 16.1 57 13.9 87 87 S 3 6 29.83 1010 10 16.09344 0 0
7:52 am 07:52 Mostly Cloudy 63 17.2 58 14.4 84 84 S 7 11 29.85 1011 10 16.09344 0 0
8:52 am 08:52 Cloudy 62 16.7 58 14.4 86 86 SSW 8 13 29.85 1011 10 16.09344 0 0
9:52 am 09:52 Cloudy with Light Rain 65 18.3 61 16.1 87 87 W 10 17 29.85 1011 10 16.09344 0.01 0.254
10:52 am 10:52 Cloudy 65 18.3 61 16.1 87 87 WSW 9 15 29.83 1010 10 16.09344 0.01 0.254
11:52 am 11:52 Cloudy 68 20 61 16.1 78 78 W 10 17 29.85 1011 10 16.09344 0.001 0.001
12:52 pm 12:52 Cloudy 64 17.8 60 15.6 87 87 WNW 12 19 29.85 1011 10 16.09344 0.001 0.001
1:52 pm 13:52 Mostly Cloudy 70 21.1 59 15 68 68 NW 12 19 29.83 1010 10 16.09344 0.001 0.001
2:27 pm 14:27 Mostly Cloudy 70 21.1 57 13.9 64 64 NNW 15 24 29.83 1010 10 16.09344 0 0
2:52 pm 14:52 Mostly Cloudy 72 22.2 57 13.9 59 59 NNW 14 22 29.83 1010 10 16.09344 0 0
3:52 pm 15:52 Mostly Cloudy 70 21.1 57 13.9 64 64 NNW 7 11 29.8 1009 10 16.09344 0 0
4:52 pm 16:52 Mostly Cloudy 73 22.8 55 12.8 53 53 NNW 9 15 29.8 1009 10 16.09344 0 0
5:52 pm 17:52 Mostly Cloudy 72 22.2 54 12.2 53 53 NW 13 20 29.83 1010 10 16.09344 0 0
6:52 pm 18:52 Cloudy 70 21.1 54 12.2 57 57 NNW 12 19 29.85 1011 10 16.09344 0 0
7:52 pm 19:52 Mostly Cloudy 69 20.6 54 12.2 59 59 NW 9 15 29.85 1011 10 16.09344 0.001 0.001
8:52 pm 20:52 Mostly Cloudy 66 18.9 55 12.8 68 68 NNW 6 9 29.88 1012 10 16.09344 0 0
9:52 pm 21:52 Cloudy with Light Rain 64 17.8 56 13.3 75 75 N 9 15 29.91 1013 10 16.09344 0.001 0.001
10:52 pm 22:52 Cloudy 64 17.8 56 13.3 75 75 N 10 17 29.91 1013 10 16.09344 0.001 0.001
11:52 pm 23:52 Cloudy 63 17.2 54 12.2 73 73 N 9 15 29.94 1014 10 16.09344 0 0

Powered by AerisWeather